Regional Weather Roundup
Issued by NWS San Angelo, TX

Home | Current Version | Previous Version | Text Only | Print | Product List | Glossary On
Versions: 1 2 3 4 5 6 7 8 9 10 11 12 13 14 15 16 17 18 19 20 21 22 23 24 25 26 27 28 29 30 31 32 33 34 35 36 37 38 39 40 41 42 43 44 45 46 47 48 49 50
000
ASUS44 KSJT 011502
RWRSJT
WEST CENTRAL TEXAS REGIONAL WEATHER ROUNDUP
NATIONAL WEATHER SERVICE SAN ANGELO TX
1000 AM CDT SAT AUG 01 2015

NOTE: "FAIR" INDICATES FEW OR NO CLOUDS BELOW 12,000 FEET WITH NO
SIGNIFICANT WEATHER AND/OR OBSTRUCTIONS TO VISIBILITY.

TXZ049-054-064>066-071>073-076>078-098-099-113-114-127-128-139-140-
154-155-168>170-011600
...LOCATIONS ACROSS WEST CENTRAL TEXAS...

CITY           SKY/WX    TMP DP  RH WIND       PRES   REMARKS
SAN ANGELO     SUNNY     84  68  58 NE9       30.10R
ABILENE        MOSUNNY   80  68  66 E12       30.13R
DYESS AFB      SUNNY     80  69  69 E10       30.11S
JUNCTION       SUNNY     84  68  58 NE10      30.09R
SWEETWATER     NOT AVBL
BROWNWOOD      NOT AVBL
COLEMAN        NOT AVBL
SONORA         NOT AVBL
OZONA          NOT AVBL
BRADY          NOT AVBL
$$

TEXAS PANHANDLE/OKLAHOMA PANHANDLE

CITY           SKY/WX    TMP DP  RH WIND       PRES   REMARKS
AMARILLO       LGT RAIN  68  65  90 SE10      30.20F
BORGER         LGT RAIN  69  67  93 SE5       30.18S FOG
CANADIAN       NOT AVBL
DALHART        MOSUNNY   75  67  76 S15       30.19S
DUMAS          PTSUNNY   67  65  94 SE10      30.20S
GUYMON         NOT AVBL
HEREFORD       NOT AVBL
PAMPA          DRIZZLE   69  67  90 CALM      30.21S
PERRYTON       NOT AVBL
$$

SOUTHERN PANHANDLE/SOUTH PLAINS/ROLLING PLAINS

CITY           SKY/WX    TMP DP  RH WIND       PRES   REMARKS
LUBBOCK        CLOUDY    72  66  81 E12       30.19S
SNYDER         NOT AVBL
CHILDRESS      LGT RAIN  71  70  96 W5        30.14R FOG
SEMINOLE       SUNNY     81  63  53 S5        30.18S
$$

PERMIAN BASIN

CITY           SKY/WX    TMP DP  RH WIND       PRES   REMARKS
MIDLAND        SUNNY     82  66  58 SE3       30.13R
ODESSA         SUNNY     83  63  50 S6        30.14S
WINK           SUNNY     84  64  50 SE10      30.10S
$$

FAR WEST/SOUTHWEST MOUNTAINS/TRANS PECOS

CITY           SKY/WX    TMP DP  RH WIND       PRES   REMARKS
ALPINE         SUNNY     78  60  52 CALM      30.26S
DRYDEN           N/A     85  68  56 VRB5      30.06S
EL PASO        MOSUNNY   80  60  50 N12       30.16R
FORT STOCKTON  SUNNY     84  64  50 SE7       30.12R
GUADALUPE PASS MOSUNNY   75  58  55 E14       30.30R
MARFA          MOSUNNY   75  61  60 SE6       30.25R
PECOS          NOT AVBL
$$

DALLAS/FORT WORTH METROPLEX

CITY           SKY/WX    TMP DP  RH WIND       PRES   REMARKS
DFW AIRPORT    PTSUNNY   87  61  41 SE10      30.07R
FTW MEACHAM    CLOUDY    87  63  44 VRB6      30.07S
DAL-EXECUTIVE  PTSUNNY   86  62  44 SE7       30.07R
GRAND PRAIRIE  SUNNY     84  63  48 SE5       30.08S
ADDISON        MOSUNNY   86  61  42 E9        30.09R
MESQUITE       SUNNY     86  61  42 E8        30.07R
LANCASTER      PTSUNNY   85  60  42 SE6       30.08R
$$

NORTH CENTRAL TEXAS

CITY           SKY/WX    TMP DP  RH WIND       PRES   REMARKS
SHRMAN/DENISON NOT AVBL
GAINESVILLE    NOT AVBL
BRIDGEPORT     NOT AVBL
DENTON         SUNNY     85  65  51 VRB6      30.07S
WAXAHACHIE     MOSUNNY   86  65  48 SE5       30.09R
GRANBURY       NOT AVBL
$$

WESTERN NORTH TEXAS

CITY           SKY/WX    TMP DP  RH WIND       PRES   REMARKS
WICHITA FALLS  CLOUDY    79  71  76 CALM      30.10S
VERNON         CLOUDY    74  67  78 CALM      30.11F
BRECKENRIDGE   NOT AVBL
COMANCHE       MOSUNNY   81  68  63 CALM      30.11S
$$

CENTRAL AND SOUTH CENTRAL TEXAS

CITY           SKY/WX    TMP DP  RH WIND       PRES   REMARKS
AUSTIN/BERGSTM MOSUNNY   83  65  54 E8        30.03R
WACO           SUNNY     86  62  44 E10       30.06R
HILLSBORO      NOT AVBL
TEMPLE         SUNNY     86  61  42 E8        30.06R
KILLEEN-GRAY   SUNNY     85  60  42 E9        30.07R
FORT HOOD      SUNNY     84  61  45 E9        30.06R
GEORGETOWN     SUNNY     84  61  45 NE12      30.06R
LAGO VISTA     FAIR      86  61  42 E8        30.08R
SAN MARCOS     SUNNY     86  66  51 NE7       30.04R
NEW BRAUNFELS  SUNNY     87  70  56 NE8       30.01R
RANDOLPH AFB   MOSUNNY   85  71  63 E8        30.02R
SAN ANTONIO    MOSUNNY   86  71  60 E8        30.02R
STINSON        SUNNY     86  72  62 E6        29.99R
PLEASANTON     NOT AVBL
LA GRANGE      NOT AVBL
GIDDINGS       NOT AVBL
$$

EAST TEXAS

CITY           SKY/WX    TMP DP  RH WIND       PRES   REMARKS
PARIS          SUNNY     84  64  51 E8        30.08S
CLARKSVILLE    NOT AVBL
TYLER          SUNNY     87  64  46 E10       30.06R
LONGVIEW       SUNNY     86  66  51 E6        30.05R
PALESTINE      SUNNY     85  65  52 E7        30.06R
NACOGDOCHES    SUNNY     82  66  57 E10G16    30.04R
$$

TEXAS HILL COUNTRY AND EDWARDS PLATEAU

CITY           SKY/WX    TMP DP  RH WIND       PRES   REMARKS
LLANO          NOT AVBL
HORSESHOE BAY  FAIR      85  65  50 E3        30.07R
KERRVILLE      SUNNY     82  70  68 E7        30.07R
FREDERICKSBRG  NOT AVBL
ROCKSPRINGS    NOT AVBL
HONDO          SUNNY     86  70  58 E10       30.03S
UVALDE         SUNNY     86  72  61 SE7       30.02S
DEL RIO        SUNNY     88  68  51 SE7       30.00R
$$

SOUTHEAST TEXAS

CITY           SKY/WX    TMP DP  RH WIND       PRES   REMARKS
COLLEGE STN    SUNNY     85  66  53 E9        30.03R
CALDWELL       NOT AVBL
CROCKETT       NOT AVBL
BRENHAM        MOSUNNY   85  68  56 E8        30.03R
HUNTSVILLE     SUNNY     86  67  52 E5        30.03R
CONROE         SUNNY     85  64  49 E8        30.02R
HOUSTON BUSH   PTSUNNY   87  66  49 E12       30.00R
HOUSTON HOBBY  PTSUNNY   87  64  46 E12G17    29.99R
PERLAND        SUNNY     87  66  49 NE12      30.00R
WHARTON        NOT AVBL
$$

THE UPPER TEXAS COAST

CITY           SKY/WX    TMP DP  RH WIND       PRES   REMARKS
ORANGE         SUNNY     85  62  46 NE8       30.00S
PORT ARTHUR    SUNNY     88  67  49 E13       29.98R
GALVESTON      SUNNY     87  72  60 NE9       29.99R
ANGLETON       SUNNY     87  70  56 NE9       29.98R
BAY CITY       SUNNY     87  70  58 NE7       29.98S
$$

TEXAS COASTAL BEND, RIO GRANDE PLAINS DEEP SOUTH TEXAS

CITY           SKY/WX    TMP DP  RH WIND       PRES   REMARKS
VICTORIA       SUNNY     87  75  67 NE7       29.99R
BEEVILLE       FAIR      83  77  81 E5        29.99R
ROCKPORT       SUNNY     85  76  74 NE5       29.97R
PORT ARANSAS   SUNNY     85  75  72 NE6       29.97R
PORT LAVACA    SUNNY     86  77  75 NE8       29.98R
CORPUS CHRISTI PTSUNNY   86  73  65 CALM      29.97S
KINGSVILLE NAS SUNNY     86  76  71 NE3       29.98S
COTULLA        SUNNY     87  71  58 VRB3      30.00R
LAREDO         SUNNY     84  73  69 E6        30.01S
BROWNSVILLE    PTSUNNY   85  76  74 CALM      29.98R
PORT ISABEL    PTSUNNY   86  76  71 N6        29.98R
HEBBRONVILLE   NOT AVBL
MCALLEN        SUNNY     89  75  63 N5        29.98R
WESLACO        SUNNY     85  74  70 CALM      29.98R HAZE
FALFURRIAS     SUNNY     83  72  69 NE5       29.98R
EDINBURG       CLOUDY    85  74  70 N5        29.99R
$$



USA.gov is the U.S. government's official web portal to all federal, state and local government web resources and services.